Overview Statistics Trail Chart Weather Telemetry Raw packets
 

This is the latest recevied weather packets stored in our database for station/object KO4LCK. If no packets are shown the sender has not sent any weather packets the latest 10 day(s).

<< 1 2 3 4 5 6 >>
Time Temp. Humidity Pressure Rain* Wind** Luminosity Snow
1788645058 36.11° C 44% 1012.2 hPa 0 mm - 56 W/m² -
1788644755 36.67° C 42% 1012.2 hPa 0 mm - 93 W/m² -
1788644454 37.22° C 41% 1012 hPa 0 mm - 112 W/m² -
1788644150 37.78° C 41% 1011.8 hPa 0 mm - 129 W/m² -
1788643845 38.33° C 40% 1011.7 hPa 0 mm - 148 W/m² -
1788643545 38.89° C 39% 1011.8 hPa 0 mm - 390 W/m² -
1788643245 38.33° C 37% 1011.7 hPa 0 mm - 398 W/m² -
1788642954 38.33° C 36% 1012 hPa 0 mm - 378 W/m² -
1788642636 38.89° C 37% 1011.8 hPa 0 mm - 422 W/m² -
1788642332 38.33° C 37% 1011.9 hPa 0 mm - 417 W/m² -
1788642032 38.33° C 39% 1011.7 hPa 0 mm - 409 W/m² -
1788641731 39.44° C 39% 1011.8 hPa 0 mm - 428 W/m² -
1788641430 40.56° C 36% 1011.9 hPa 0 mm - 442 W/m² -
1788641125 40.56° C 36% 1011.9 hPa 0 mm - 458 W/m² -
1788640821 39.44° C 38% 1012.1 hPa 0 mm - 475 W/m² -
1788640520 38.89° C 38% 1012.3 hPa 0 mm - 483 W/m² -
1788640216 38.33° C 39% 1012.2 hPa 0 mm - 495 W/m² -
1788639911 37.78° C 39% 1012.4 hPa 0 mm - 139 W/m² -
1788639606 37.78° C 40% 1012.2 hPa 0 mm - 469 W/m² -
1788639302 38.33° C 38% 1012.3 hPa 0 mm - 199 W/m² -
1788639001 38.89° C 38% 1012.6 hPa 0 mm - 569 W/m² -
1788638697 39.44° C 37% 1012.3 hPa 0 mm - 606 W/m² -
1788638395 39.44° C 37% 1012.3 hPa 0 mm - 626 W/m² -
1788638091 38.89° C 38% 1012.5 hPa 0 mm - 627 W/m² -
1788637786 38.89° C 37% 1012.5 hPa 0 mm - 638 W/m² -

* Rain latest hour (hover to see other rain measurements)
** Current wind speed in m/s (hover to see current wind gust speed)